Regional Weather Roundup
Issued by NWS

Home | Current Version | Previous Version | Graphics & Text | Print | Product List | Glossary On
Versions: 1 2 3 4 5 6 7 8 9 10 11 12 13 14 15 16 17 18 19 20 21 22 23 24 25 26 27 28 29 30 31 32 33 34 35 36 37 38 39 40 41 42 43 44 45 46 47 48 49 50
000
ASUS43 KFSD 242310
RWRSD

WEATHER ROUNDUP FOR SOUTH DAKOTA
NATIONAL WEATHER SERVICE SIOUX FALLS SD
500 PM CST FRI FEB 24 2017

NOTE: "FAIR" INDICATES FEW OR NO CLOUDS BELOW 12,000 FEET WITH NO
SIGNIFICANT WEATHER AND/OR OBSTRUCTIONS TO VISIBILITY.


SDZ001>005-009-010-012>017-250000-
NORTHWEST AND NORTH CENTRAL SOUTH DAKOTA

CITY           SKY/WX    TMP DP  RH WIND       PRES   REMARKS
BUFFALO          N/A     30  12  47 SW7       29.97F WCI  23
FAITH            N/A     28  14  55 N6        30.07F WCI  22
MOBRIDGE       SUNNY     32  13  45 N10       30.09R WCI  24
$$

SDZ012>016-024>037-041>051-057-063-072>074-250000-
SOUTHWEST AND SOUTH CENTRAL SOUTH DAKOTA

CITY           SKY/WX    TMP DP  RH WIND       PRES   REMARKS
RAPID CTY ARPT PTSUNNY   22  16  78 S9        30.05S WCI  12
PIERRE         CLOUDY    30  14  51 NW18      30.09S WCI  18
CUSTER         CLOUDY    19  13  77 W7        29.91S WCI  10
ELLSWORTH AFB  CLOUDY    24  17  74 S5        30.04S WCI  18
PHILIP         SUNNY     33  11  39 NW8       30.09S WCI  26
PINE RIDGE     CLOUDY    22  16  78 W9        30.07S WCI  12
SPEARFISH      FAIR      25  19  80 SE5       30.00F WCI  19
WINNER         CLOUDY    28  16  60 NW17      30.08R WCI  16
$$

SDZ004>011-016>023-039-040-250000-
NORTHEAST SOUTH DAKOTA

CITY           SKY/WX    TMP DP  RH WIND       PRES   REMARKS
ABERDEEN       MOSUNNY   27  15  61 N22G29    30.07R WCI  13
WATERTOWN      PTSUNNY   24  14  65 N23G30    29.98R WCI   9
BROOKINGS      CLOUDY    26  16  65 N23       29.94R WCI  11
SISSETON         N/A     24  15  68 N28G35    30.03R WCI   7
$$

SDZ017-020-022-023-036>040-048>070-250000-
SOUTHEAST SOUTH DAKOTA

CITY           SKY/WX    TMP DP  RH WIND       PRES   REMARKS
SIOUX FALLS    CLOUDY    27  16  63 N17       29.95R WCI  14
HURON          SUNNY     30  16  56 N20       30.03R WCI  17
CHAMBERLAIN    CLOUDY    33  16  49 NW18G29   30.06R WCI  22
MITCHELL       CLOUDY    32  17  54 N22G28    30.02S WCI  19
YANKTON        CLOUDY    28  16  59 NW20G28   30.00R WCI  15
$$

ABBREVIATIONS USED IN REMARKS
   TC - TEMPERATURE IN CELSIUS
  WCI - WIND CHILL INDEX
   HX - HEAT INDEX
  VSB - VISIBILITY





USA.gov is the U.S. government's official web portal to all federal, state and local government web resources and services.